Flag for Netherlands Weather past 2 weeks in Apeldoorn, Netherlands

Now
30 °F

Ice fog.


Feels Like: 30 °F
Forecast: 36 / 47 °F
Wind: No wind

Location: Deelen

Current Time: Mar 5, 2015 at 7:53:26 AM

Latest Report: Mar 5, 2015 at 7:25 AM


Visibility: 0 mi

Pressure: 30.60 "Hg

Humidity: 100%

Dew point: 30 °F

Location of ApeldoornLocation

Historic Weather in Apeldoorn — Graph

°F

Apeldoorn temperature yesterday

Maximum temperature yesterday: 45 °F (at 3:25 PM)
Minimum temperature yesterday: 34 °F (at 12:55 AM)
Average temperature yesterday: 38 °F

Past Weeks' High & Low Weather Summary

 TemperatureHumidityPressure
High52 °F (Mar 1, 1:25 PM)100% (Feb 18, 6:25 AM)30.72 "Hg (Feb 18, 6:25 AM)
Low28 °F (Feb 18, 6:25 AM)53% (Feb 27, 4:25 PM)29.30 "Hg (Feb 23, 4:25 AM)
Average39 °F86%29.86 "Hg
* Reported Feb 18 6:25 AM — Mar 5 6:55 AM, Apeldoorn, Weather by CustomWeather, © 2015

Note: Actual official high and low records may vary slightly from our data, if they occured in-between our weather recording intervals... More about our weather records

Advertising

Apeldoorn weather history for previous 24 hours

 ConditionsComfort  
Time TempWeatherWind HumidityBarometerVisibility
6:55 AM
Thu, Mar 5
30 °FIce fog.No wind100%30.60 "Hg1 mi
6:25 AM32 °FIce fog.No wind100%30.60 "Hg1 mi
5:55 AM32 °FIce fog.No wind93%30.60 "Hg1 mi
5:25 AM30 °FIce fog.1 mph100%30.60 "Hg1 mi
4:55 AM30 °FIce fog.No wind100%30.57 "Hg1 mi
3:55 AM32 °FIce fog.1 mph100%30.57 "Hg2 mi
2:55 AM34 °FFog.1 mph93%30.54 "Hg3 mi
2:25 AM32 °FIce fog.1 mph100%30.54 "Hg3 mi
1:55 AM34 °FFog.3 mph100%30.54 "Hg4 mi
1:25 AM34 °FPassing clouds.3 mph93%30.54 "HgN/A
12:55 AM36 °FPassing clouds.5 mph93%30.51 "HgN/A
12:25 AM36 °FPassing clouds.6 mph93%30.48 "HgN/A
11:55 PM
Wed, Mar 4
37 °FPassing clouds.8 mph87%30.48 "HgN/A
11:25 PM39 °FPassing clouds.10 mph87%30.48 "HgN/A
10:25 PM41 °FPassing clouds.12 mph87%30.45 "HgN/A
9:55 PM39 °FPassing clouds.10 mph93%30.42 "HgN/A
9:25 PM41 °FPassing clouds.10 mph87%30.39 "HgN/A
8:55 PM41 °FMostly cloudy.12 mph87%30.39 "HgN/A
8:25 PM41 °FPartly cloudy.10 mph87%30.36 "HgN/A
7:55 PM41 °FMostly cloudy.10 mph87%30.36 "HgN/A
7:25 PM39 °FPartly cloudy.8 mph93%30.33 "HgN/A
6:55 PM39 °FLight rain. Passing clouds.9 mph93%30.33 "HgN/A
6:25 PM39 °FLight rain. Partly cloudy.8 mph93%30.30 "HgN/A
5:55 PM39 °FMore clouds than sun.12 mph93%30.30 "HgN/A
5:25 PM37 °FPartly sunny.7 mph93%30.30 "HgN/A
4:55 PM37 °FLight rain. Broken clouds.6 mph93%30.27 "HgN/A
4:25 PM39 °FThunderstorms. Broken clouds.20 mph81%30.27 "HgN/A
3:55 PM45 °FPartly sunny.13 mph66%30.24 "HgN/A
3:25 PM45 °FPartly sunny.18 mph66%30.24 "HgN/A
2:55 PM43 °FPartly sunny.15 mph71%30.24 "HgN/A
2:25 PM43 °FMore clouds than sun.15 mph71%30.24 "HgN/A
1:55 PM43 °FMore clouds than sun.13 mph76%30.21 "HgN/A
1:25 PM43 °FCloudy.13 mph71%30.21 "HgN/A
12:55 PM43 °FMostly cloudy.14 mph71%30.21 "HgN/A
12:25 PM43 °FOvercast.14 mph71%30.21 "HgN/A
11:55 AM41 °FCloudy.12 mph76%30.18 "HgN/A
11:25 AM41 °FMore clouds than sun.13 mph76%30.18 "HgN/A
10:55 AM39 °FMostly cloudy.9 mph87%30.18 "HgN/A
10:25 AM39 °FCloudy.10 mph87%30.18 "HgN/A
9:55 AM39 °FMostly cloudy.12 mph87%30.15 "HgN/A
9:25 AM37 °FScattered clouds.12 mph93%30.15 "HgN/A
8:55 AM36 °FChilly.10 mph93%30.12 "HgN/A
8:25 AM36 °FPassing clouds.9 mph87%30.12 "HgN/A
7:55 AM34 °FPassing clouds.10 mph93%30.12 "HgN/A
7:25 AM34 °FPartly sunny.10 mph93%30.12 "HgN/A
Weather by CustomWeather, © 2015

See weather overviewHow to use our weather pages